TimeCDT,TemperatureF,Dew PointF,Humidity,Sea Level PressureIn,VisibilityMPH,Wind Direction,Wind SpeedMPH,Gust SpeedMPH,PrecipitationIn,Events,Conditions,WindDirDegrees,DateUTC
12:53 AM,75.9,73.9,94,29.77,6.0,Calm,Calm,-,N/A,,Clear,0,2013-09-01 05:53:00
1:53 AM,75.0,73.0,94,29.76,6.0,Calm,Calm,-,N/A,,Clear,0,2013-09-01 06:53:00
2:53 AM,75.9,73.0,91,29.76,8.0,Calm,Calm,-,N/A,,Clear,0,2013-09-01 07:53:00
3:53 AM,75.0,72.0,90,29.76,10.0,Calm,Calm,-,N/A,,Clear,0,2013-09-01 08:53:00
4:53 AM,73.0,71.1,93,29.77,10.0,Calm,Calm,-,N/A,,Clear,0,2013-09-01 09:53:00
5:53 AM,73.9,72.0,93,29.78,9.0,Calm,Calm,-,N/A,,Clear,0,2013-09-01 10:53:00
6:53 AM,73.9,71.1,91,29.78,5.0,Calm,Calm,-,N/A,,Clear,0,2013-09-01 11:53:00
7:53 AM,77.0,73.0,88,29.78,10.0,Calm,Calm,-,N/A,,Clear,0,2013-09-01 12:53:00
8:53 AM,81.0,75.0,82,29.79,7.0,Calm,Calm,-,N/A,,Clear,0,2013-09-01 13:53:00
9:53 AM,86.0,75.9,72,29.78,8.0,NE,3.5,-,N/A,,Clear,40,2013-09-01 14:53:00
10:53 AM,87.1,73.9,65,29.79,10.0,WSW,5.8,-,N/A,,Scattered Clouds,250,2013-09-01 15:53:00
11:53 AM,89.1,70.0,53,29.80,10.0,Variable,5.8,-,N/A,,Partly Cloudy,0,2013-09-01 16:53:00
12:53 PM,91.0,69.1,48,29.79,10.0,Calm,Calm,-,N/A,,Scattered Clouds,0,2013-09-01 17:53:00
1:53 PM,87.1,69.1,55,29.78,10.0,West,6.9,-,N/A,,Mostly Cloudy,270,2013-09-01 18:53:00
2:16 PM,84.2,69.8,62,29.81,10.0,WSW,10.4,19.6,0.03,Thunderstorm,Mostly Cloudy,250,2013-09-01 19:16:00
2:37 PM,80.6,66.2,61,29.80,10.0,North,19.6,26.5,0.03,Thunderstorm,Partly Cloudy,360,2013-09-01 19:37:00
2:53 PM,81.0,66.9,62,29.80,10.0,NNE,11.5,-,0.03,Thunderstorm,Clear,30,2013-09-01 19:53:00
3:03 PM,80.6,66.2,61,29.80,10.0,ENE,9.2,-,N/A,,Overcast,60,2013-09-01 20:03:00
3:53 PM,84.9,66.0,53,29.78,10.0,SE,5.8,-,N/A,,Overcast,130,2013-09-01 20:53:00
4:53 PM,87.1,66.0,49,29.78,10.0,Calm,Calm,-,N/A,,Clear,0,2013-09-01 21:53:00
5:53 PM,87.1,69.1,55,29.77,10.0,Calm,Calm,-,N/A,,Clear,0,2013-09-01 22:53:00
6:53 PM,82.9,71.1,67,29.78,10.0,South,4.6,-,N/A,,Partly Cloudy,170,2013-09-01 23:53:00
7:53 PM,81.0,71.1,72,29.81,10.0,South,3.5,-,N/A,,Mostly Cloudy,170,2013-09-02 00:53:00
8:53 PM,79.0,71.1,77,29.82,10.0,SE,3.5,-,N/A,,Scattered Clouds,140,2013-09-02 01:53:00
9:53 PM,79.0,71.1,77,29.83,10.0,SW,3.5,-,N/A,,Clear,220,2013-09-02 02:53:00
10:53 PM,77.0,70.0,79,29.83,10.0,Calm,Calm,-,N/A,,Clear,0,2013-09-02 03:53:00
11:53 PM,75.9,70.0,82,29.83,10.0,Calm,Calm,-,N/A,,Clear,0,2013-09-02 04:53:00